Date,TemperatureHighF,TemperatureAvgF,TemperatureLowF,DewpointHighF,DewpointAvgF,DewpointLowF,HumidityHigh,HumidityAvg,HumidityLow,PressureMaxIn,PressureMinIn,WindSpeedMaxMPH,WindSpeedAvgMPH,GustSpeedMaxMPH,PrecipitationSumIn
2013-2-1,67,53,36,19,16,14,40,24,14,30.19,30.05,7,1,25,0.00
2013-2-2,64,50,40,22,15,9,42,26,15,30.27,30.12,4,1,19,0.00
2013-2-3,60,49,36,26,23,22,58,39,24,30.26,29.93,6,1,17,0.00
2013-2-4,67,56,47,31,28,21,45,34,25,29.98,29.88,13,4,24,0.00
2013-2-5,67,53,41,35,30,25,68,43,25,30.00,29.89,7,1,19,0.00
2013-2-6,69,55,42,35,31,29,62,43,25,29.95,29.82,6,1,17,0.00
2013-2-7,68,55,44,31,25,22,48,32,17,30.10,29.91,13,2,19,0.00
2013-2-8,65,50,36,35,30,23,75,47,28,30.12,29.89,5,0,16,0.00
2013-2-9,72,59,46,38,29,14,59,36,15,29.91,29.63,20,7,35,0.00
2013-2-10,61,47,36,22,17,14,41,31,21,29.92,29.80,20,5,30,0.00
2013-2-11,65,50,35,32,24,15,57,38,22,29.93,29.77,8,1,28,0.00
2013-2-12,52,43,36,30,16,4,66,36,14,30.02,29.79,20,8,38,0.00
2013-2-13,57,43,27,20,11,4,73,33,12,30.06,29.91,5,1,14,0.00
2013-2-14,65,48,34,15,10,6,31,23,13,30.02,29.91,8,1,18,0.00
2013-2-15,47,36,29,28,24,10,82,66,23,30.29,30.00,9,1,22,0.00
2013-2-16,62,43,26,25,18,9,85,44,17,30.34,30.11,5,1,14,0.00
2013-2-17,68,52,36,19,14,9,38,23,11,30.11,29.80,7,2,18,0.00
2013-2-18,66,56,43,18,7,2,25,15,10,30.03,29.81,15,4,30,0.00
2013-2-19,60,49,41,28,18,4,54,31,19,30.03,29.87,4,0,11,0.00
2013-2-20,73,56,36,34,21,2,78,35,7,29.89,29.45,14,4,36,0.00
2013-2-21,55,43,31,24,17,8,73,40,17,29.85,29.55,21,9,35,0.00
2013-2-22,60,44,31,18,12,8,42,28,17,29.93,29.83,11,1,24,0.00
2013-2-23,65,50,32,20,14,9,49,26,13,29.98,29.79,13,4,24,0.00
2013-2-24,70,59,39,16,9,0,27,15,7,29.79,29.49,18,5,40,0.00
2013-2-25,51,40,28,17,11,2,53,30,20,29.94,29.65,21,9,40,0.00
2013-2-26,63,46,30,8,4,-1,33,20,8,29.93,29.75,8,2,22,0.00
2013-2-27,51,41,32,17,9,-2,48,28,12,30.16,29.84,13,2,24,0.00
2013-2-28,55,40,26,15,11,7,55,32,17,30.20,30.10,6,1,13,0.00